• In Belgium
  • List of Countries
  • For 7 days
  • Water Temperature
  • Satellite Maps
  • Weather Map
  • Weather Widgets
  • user-avatar
    Login

    Hourly Weather Pritykino

    Today, 24 September, Monday

    Time Temperature Precipitation Wind Pressure Humidity
    00:00 +8°C° 0 mm 3 mps 745 mmHg 87%
    01:00 +8°C° 0 mm 3 mps 745 mmHg 89%
    02:00 +7°C° 0 mm 3 mps 745 mmHg 90%
    03:00 +7°C° 0 mm 2 mps 745 mmHg 92%
    04:00 +7°C° 0 mm 2 mps 745 mmHg 93%
    05:00 +6°C° 0 mm 2 mps 745 mmHg 95%
    06:00 +7°C° 0 mm 2 mps 745 mmHg 89%
    07:00 +8°C° 0 mm 3 mps 745 mmHg 84%
    08:00 +10°C° 0 mm 3 mps 745 mmHg 79%
    09:00 +11°C° 0 mm 3 mps 745 mmHg 73%
    10:00 +12°C° 0 mm 3 mps 745 mmHg 67%
    11:00 +14°C° 0 mm 4 mps 744 mmHg 60%
    12:00 +13°C° 0.7 mm 3 mps 744 mmHg 68%
    13:00 +12°C° 0.7 mm 3 mps 744 mmHg 76%
    14:00 +11°C° 0.7 mm 3 mps 743 mmHg 84%
    15:00 +10°C° 1.2 mm 3 mps 742 mmHg 86%
    16:00 +10°C° 1.2 mm 4 mps 742 mmHg 88%
    17:00 +8°C° 1.2 mm 4 mps 741 mmHg 90%
    18:00 +8°C° 2.4 mm 5 mps 739 mmHg 90%
    19:00 +7°C° 2.4 mm 5 mps 738 mmHg 91%
    20:00 +7°C° 2.4 mm 6 mps 737 mmHg 91%
    21:00 +7°C° 1.3 mm 5 mps 736 mmHg 91%
    22:00 +8°C° 1.3 mm 5 mps 735 mmHg 91%
    23:00 +9°C° 1.3 mm 5 mps 734 mmHg 91%

    Tomorrow, 25 September, Tuesday

    Time Temperature Precipitation Wind Pressure Humidity
    00:00 +8°C° 0.5 mm 5 mps 734 mmHg 91%
    01:00 +8°C° 0.5 mm 4 mps 733 mmHg 90%
    02:00 +8°C° 0.5 mm 4 mps 733 mmHg 90%
    03:00 +8°C° 0.2 mm 4 mps 733 mmHg 91%
    04:00 +7°C° 0.2 mm 4 mps 734 mmHg 91%
    05:00 +7°C° 0.2 mm 4 mps 734 mmHg 92%
    06:00 +7°C° 0.2 mm 5 mps 734 mmHg 91%
    07:00 +7°C° 0.2 mm 5 mps 735 mmHg 90%
    08:00 +7°C° 0.2 mm 6 mps 736 mmHg 89%
    09:00 +7°C° 0.5 mm 6 mps 737 mmHg 89%
    10:00 +7°C° 0.5 mm 6 mps 738 mmHg 88%
    11:00 +7°C° 0.5 mm 6 mps 738 mmHg 87%
    12:00 +6°C° 0.6 mm 7 mps 739 mmHg 86%
    13:00 +6°C° 0.6 mm 7 mps 740 mmHg 86%
    14:00 +6°C° 0.6 mm 7 mps 741 mmHg 85%
    15:00 +6°C° 0.6 mm 7 mps 742 mmHg 84%
    16:00 +5°C° 0.6 mm 7 mps 742 mmHg 83%
    17:00 +5°C° 0.6 mm 6 mps 743 mmHg 83%
    18:00 +5°C° 0.1 mm 6 mps 744 mmHg 82%
    19:00 +5°C° 0.1 mm 6 mps 745 mmHg 82%
    20:00 +4°C° 0.1 mm 6 mps 746 mmHg 82%
    21:00 +4°C° 0 mm 6 mps 747 mmHg 82%
    22:00 +3°C° 0 mm 6 mps 747 mmHg 82%
    23:00 +3°C° 0 mm 6 mps 748 mmHg 82%

    Day after tomorrow, 26 September, Wednesday

    Time Temperature Precipitation Wind Pressure Humidity
    00:00 +2°C° 0 mm 5 mps 749 mmHg 81%
    01:00 +2°C° 0 mm 5 mps 750 mmHg 80%
    02:00 +1°C° 0 mm 5 mps 751 mmHg 79%
    03:00 0°C° 0 mm 5 mps 752 mmHg 78%
    04:00 0°C° 0 mm 4 mps 752 mmHg 78%
    05:00 -1°C° 0 mm 4 mps 753 mmHg 77%
    06:00 0°C° 0 mm 4 mps 754 mmHg 73%
    07:00 +1°C° 0 mm 4 mps 754 mmHg 69%
    08:00 +3°C° 0 mm 4 mps 755 mmHg 65%
    09:00 +4°C° 0 mm 4 mps 755 mmHg 60%
    10:00 +6°C° 0 mm 4 mps 755 mmHg 56%
    11:00 +7°C° 0 mm 4 mps 755 mmHg 52%
    12:00 +8°C° 0 mm 4 mps 755 mmHg 51%
    13:00 +8°C° 0 mm 4 mps 755 mmHg 51%
    14:00 +10°C° 0 mm 4 mps 754 mmHg 51%
    15:00 +8°C° 0 mm 4 mps 754 mmHg 56%
    16:00 +7°C° 0 mm 4 mps 753 mmHg 62%
    17:00 +6°C° 0 mm 4 mps 753 mmHg 67%
    18:00 +6°C° 0 mm 4 mps 752 mmHg 68%
    19:00 +6°C° 0 mm 5 mps 752 mmHg 69%
    20:00 +6°C° 0 mm 5 mps 751 mmHg 70%
    21:00 +5°C° 0.3 mm 6 mps 750 mmHg 72%
    22:00 +5°C° 0.3 mm 6 mps 749 mmHg 75%
    23:00 +5°C° 0.3 mm 7 mps 748 mmHg 77%

    27 September, Thursday

    Time Temperature Precipitation Wind Pressure Humidity
    00:00 +4°C° 0.9 mm 7 mps 746 mmHg 79%
    01:00 +4°C° 0.9 mm 7 mps 745 mmHg 82%
    02:00 +4°C° 0.9 mm 8 mps 744 mmHg 84%
    03:00 +4°C° 1 mm 7 mps 743 mmHg 85%
    04:00 +4°C° 1 mm 7 mps 743 mmHg 87%
    05:00 +4°C° 1 mm 6 mps 742 mmHg 88%
    06:00 +5°C° 0.4 mm 6 mps 742 mmHg 87%
    07:00 +7°C° 0.4 mm 6 mps 742 mmHg 85%
    08:00 +7°C° 0.4 mm 5 mps 742 mmHg 84%
    09:00 +8°C° 0.1 mm 5 mps 742 mmHg 78%
    10:00 +9°C° 0.1 mm 6 mps 742 mmHg 71%
    11:00 +10°C° 0.1 mm 6 mps 743 mmHg 65%
    12:00 +10°C° 0.1 mm 6 mps 743 mmHg 61%
    13:00 +10°C° 0.1 mm 6 mps 743 mmHg 58%
    14:00 +11°C° 0.1 mm 6 mps 743 mmHg 55%
    15:00 +10°C° 0.1 mm 5 mps 743 mmHg 60%
    16:00 +10°C° 0.1 mm 4 mps 743 mmHg 65%
    17:00 +9°C° 0.1 mm 3 mps 743 mmHg 70%
    18:00 +8°C° 0 mm 3 mps 743 mmHg 74%
    19:00 +8°C° 0 mm 3 mps 744 mmHg 78%
    20:00 +7°C° 0 mm 3 mps 744 mmHg 82%
    21:00 +7°C° 0 mm 3 mps 743 mmHg 84%
    22:00 +7°C° 0 mm 3 mps 743 mmHg 85%
    23:00 +7°C° 0 mm 3 mps 743 mmHg 87%

    28 September, Friday

    Time Temperature Precipitation Wind Pressure Humidity
    00:00 +7°C° 0.3 mm 3 mps 742 mmHg 89%
    01:00 +7°C° 0.3 mm 3 mps 742 mmHg 92%
    02:00 +7°C° 0.3 mm 2 mps 741 mmHg 94%
    03:00 +8°C° 1.6 mm 3 mps 740 mmHg 94%
    04:00 +7°C° 1.6 mm 4 mps 738 mmHg 94%
    05:00 +8°C° 1.6 mm 4 mps 737 mmHg 94%
    06:00 +9°C° 1.3 mm 5 mps 736 mmHg 93%
    07:00 +9°C° 1.3 mm 5 mps 736 mmHg 92%
    08:00 +10°C° 1.3 mm 5 mps 735 mmHg 91%
    09:00 +9°C° 0.3 mm 6 mps 736 mmHg 89%
    10:00 +8°C° 0.3 mm 6 mps 737 mmHg 86%
    11:00 +6°C° 0.3 mm 7 mps 738 mmHg 84%
    12:00 +7°C° 0.1 mm 6 mps 739 mmHg 80%
    13:00 +8°C° 0.1 mm 6 mps 741 mmHg 77%
    14:00 +8°C° 0.1 mm 6 mps 742 mmHg 74%
    15:00 +8°C° 0.2 mm 5 mps 743 mmHg 76%
    16:00 +7°C° 0.2 mm 4 mps 743 mmHg 78%
    17:00 +7°C° 0.2 mm 4 mps 744 mmHg 80%
    18:00 +6°C° 0 mm 4 mps 745 mmHg 82%
    19:00 +5°C° 0 mm 4 mps 746 mmHg 85%
    20:00 +5°C° 0 mm 3 mps 746 mmHg 87%
    21:00 +4°C° 0 mm 3 mps 747 mmHg 88%
    22:00 +4°C° 0 mm 3 mps 748 mmHg 89%
    23:00 +3°C° 0 mm 3 mps 748 mmHg 89%

    29 September, Saturday

    Time Temperature Precipitation Wind Pressure Humidity
    00:00 +3°C° 0 mm 3 mps 749 mmHg 90%
    01:00 +2°C° 0 mm 3 mps 749 mmHg 90%
    02:00 +2°C° 0 mm 3 mps 750 mmHg 91%
    03:00 +2°C° 0 mm 3 mps 750 mmHg 92%
    04:00 +1°C° 0 mm 3 mps 751 mmHg 93%
    05:00 +1°C° 0 mm 3 mps 751 mmHg 94%
    06:00 +2°C° 0 mm 3 mps 752 mmHg 91%
    07:00 +3°C° 0 mm 3 mps 752 mmHg 87%
    08:00 +3°C° 0 mm 3 mps 753 mmHg 84%
    09:00 +4°C° 0 mm 3 mps 753 mmHg 77%
    10:00 +5°C° 0 mm 4 mps 754 mmHg 70%
    11:00 +6°C° 0 mm 4 mps 754 mmHg 62%
    12:00 +7°C° 0 mm 4 mps 754 mmHg 58%
    13:00 +8°C° 0 mm 3 mps 755 mmHg 53%
    14:00 +9°C° 0 mm 3 mps 755 mmHg 49%
    15:00 +7°C° 0 mm 3 mps 755 mmHg 55%
    16:00 +6°C° 0 mm 2 mps 755 mmHg 60%
    17:00 +5°C° 0 mm 2 mps 755 mmHg 65%
    18:00 +5°C° 0 mm 2 mps 755 mmHg 67%
    19:00 +4°C° 0 mm 3 mps 756 mmHg 69%
    20:00 +3°C° 0 mm 3 mps 756 mmHg 70%
    21:00 +3°C° 0 mm 3 mps 756 mmHg 72%
    22:00 +3°C° 0 mm 3 mps 757 mmHg 74%
    23:00 +3°C° 0 mm 3 mps 757 mmHg 76%
    Show more

    3.3.7123123